Сердар

Туркменистан     38°58′50″N   56°16′32″E
В апреле 2022 года жителям России запретили посещать сайт meteo.paraplan.net по решению Генеральной прокуратуры. Аудитория сайта уменьшилась в 10 раз. Владельцы сайта не видят смысла в поддержке погодного сервера в таких условиях. Сайт будет закрыт в октябре.
темп.,
°C
ветер,
м/с
пор.,
м/с
влажн.,
%
обл.,
%
осадки,
мм/ч
давл.,
гПа
погр.,
м
26 сентября, пн
пн2623:00+24сз33410 0.0 101835
02:00+22ссв46480 0.0 102091
05:00+20св335027 0.0 102130
08:00+20св354262 0.0 1023350
11:00+22всв663482 0.0 1023901
14:00+26всв77280 0.0 10211237
17:00+27всв88260 0.0 10191363
20:00+23св69280 0.0 1019166
27 сентября, вт
вт2723:00+22всв69240 0.0 1019184
02:00+20всв58250 0.0 1018127
05:00+19в45270 0.0 101873
08:00+19в49290 0.0 1017253
11:00+25вюв910230 0.0 1017876
14:00+30в1010200 0.0 10141240
17:00+30в1111190 0.0 10121258
20:00+27в813220 0.0 1012252
28 сентября, ср
ср2823:00+24в713240 0.0 1012264
02:00+22в611240 0.0 1011208
05:00+20в58220 0.0 1011134
08:00+19вюв510210 0.0 1011248
11:00+26вюв810150 0.0 1011601
14:00+32вюв1010120 0.0 1008961
17:00+33в1011110 0.0 10061009
20:00+29в91614100 0.0 1006328
29 сентября, чт
чт2923:00+25в712180 0.0 1007210
02:00+22вюв69220 0.0 1007129
05:00+20вюв57241 0.0 100691
08:00+20вюв58220 0.0 1007167
11:00+27вюв56150 0.0 1008465
14:00+33в33139 0.0 1006963
17:00+35в43123 0.0 1005997
20:00+28вюв4415100 0.0 100717
30 сентября, пт
пт3023:00+26вюв33190 0.0 100818
02:00+23ююв23240 0.0 100815
05:00+21ююз44420 0.0 101144
08:00+21ююз58550 0.0 1013191
11:00+27юз1011490 0.0 10141038
14:00+31юз884011 0.0 10131933
17:00+31зюз673721 0.0 10132136
20:00+26з584222 0.0 1014136